Погода в Ореховне

Россия / Псковская область     58°37′08″N   28°58′15″E
темп.,
°C
ветер,
м/с
пор.,
м/с
влажн.,
%
обл.,
%
осадки,
мм/ч
давл.,
гПа
погр.,
м
24 сентября, пт
пт2400:00+4юв51391100 0.0 999683
03:00+5юв61492100 0.0 995681
06:00+5вюв71591100 0.4 993767
09:00+5вюв61390100 0.6 993847
12:00+6вюв51190100 0.1 995757
15:00+6вюв41090100 0.2 997665
18:00+6вюв3892100 0.0 999571
21:00+6вюв3795100 0.1 1000448
25 сентября, сб
сб2500:00+6юв2796100 0.0 1001365
03:00+6ююв3796100 0.0 1001370
06:00+7ю3996100 0.1 1000392
09:00+7ююз3897100 1.4 999402
12:00+8ююз2798100 0.8 1000364
15:00+9ююз259258 2.4 1000411
18:00+9зсз3996100 0.1 1002562
21:00+8зсз4119631 0.1 1006566
26 сентября, вс
вс2600:00+7зсз4129697 0.0 1008533
03:00+7зсз4119660 0.1 1010578
06:00+8зсз41195100 0.2 1013501
09:00+8зсз41092100 0.3 1015496
12:00+12сз587321 0.1 10181128
15:00+13ссз486139 0.3 10191493
18:00+11ссз48655 0.0 1021478
21:00+6сз28955 0.0 1024171
27 сентября, пн
пн2700:00+6сз24975 0.0 102596
03:00+5с23965 0.0 102751
06:00+4с22965 0.0 102826
09:00+7ссв248619 0.0 1029175
12:00+12св23655 0.0 1029720
15:00+14св235625 0.0 10291208
18:00+11св227250 0.0 102915
21:00+8в128710 0.0 103011
28 сентября, вт
вт2800:00+6вюв229418 0.0 103121
03:00+6юв12959 0.0 103214
06:00+5вюв22955 0.0 103325
09:00+8вюв23855 0.0 1033153
12:00+13вюв236451 0.0 1034785
15:00+14вюв225466 0.0 10331409
18:00+12вюв226299 0.0 103340
21:00+11вюв2266100 0.0 103355